Disclaimer

Please do not use the information listed here in-flight or in-navigation, as they are not provided to us by the airports but are provided by volunteers, so they might be outdated.

Search


Regions


Airport information page

Radio informations:
DAISETSU TWR - 118.55 MHz

Airport informations:
Latitude: 43° 40' 15.00" N
Longitude: 142° 26' 51.00" E
Elevation: 721 feet - 220 meters
Operating hours: Remarks
Operating agency: Civil government, landing fees and diplomatic clearance may be required
Timezone: UTC+9
Fuel: Jet A1, without icing nhibitor.

100/130 MIL Spec, low lead, aviation gasoline (BLUE)

Runway information:
16/34 - 8200 x 200 feet< - >2499 x 61 meters

Recent METARs:
RJEC 212140Z 17010KT 7000 -SHSN FEW010 SCT025 BKN035 M09/M12 Q1002 RMK 1ST010 3CU025 5CU035 A2961
RJEC 212200Z 18008KT 4500 -SHSN FEW010 SCT015 BKN025 M09/M12 Q1002

Airport on the map: